Jinan Kechuang

operational
NORAD ID: 58925 Int'l Des: NNA 2024-024 Owner: ZHIXJ Country: CN
LEOCIRCULARRETROGRADESSO

About Jinan Kechuang

Description loading...

Live Position

Loading 3D Globe...

Upcoming Passes

Altitude History

Altitude vs Time

uPlot chart will show altitude changes over time

Two-Line Element Set

1 58925U 24024J 26048.59667579 .00061515 00000-0 80327-3 0 9996
2 58925 97.3222 135.0743 0005253 170.7146 189.4208 15.58463289150986
Epoch: Feb 17, 2026 • Age: 10 hours

Current Status

Altitude 399.1 km
Velocity 7.67 km/s
Sub-Earth Point -26.20°S, 157.2°E
Launch Date Feb 3, 2024
Age 2 years
Type other

Technical Details

Classification Payload
Mass 50.00 kg
Dry Mass 50.00 kg
Total Mass 50.00 kg
Length 0.40 m
Diameter 0.40 m
Span 0.40 m
Shape Box
Manufacturer ZHIXJ
Bus Type ZX-2A
Phase Status In Orbit
Owner/State ZHIXJ/CN

Large Constellations

Loading constellations...